Stündliche Wetter Cayo Levantado

Heute, 30 Oktober, Freitag

Zeit Temperatur Niederschläge Wind Luftdruck Luftfeuchtigkeit
00:00 +25°C° 0.3 mm 1 m/S 745 mmHg 89%
01:00 +25°C° 0 mm 1 m/S 744 mmHg 90%
02:00 +25°C° 0.3 mm 1 m/S 744 mmHg 90%
03:00 +25°C° 0.3 mm 1 m/S 744 mmHg 90%
04:00 +25°C° 0.3 mm 1 m/S 744 mmHg 90%
05:00 +26°C° 0.2 mm 1 m/S 744 mmHg 89%
06:00 +26°C° 0.2 mm 1 m/S 745 mmHg 88%
07:00 +27°C° 0.2 mm 1 m/S 746 mmHg 87%
08:00 +28°C° 0.2 mm 2 m/S 746 mmHg 82%
09:00 +29°C° 0.2 mm 2 m/S 746 mmHg 77%
10:00 +30°C° 0.2 mm 3 m/S 746 mmHg 72%
11:00 +30°C° 1.2 mm 4 m/S 745 mmHg 76%
12:00 +30°C° 1.2 mm 4 m/S 745 mmHg 80%
13:00 +29°C° 1.2 mm 5 m/S 744 mmHg 83%
14:00 +29°C° 0.9 mm 4 m/S 744 mmHg 84%
15:00 +28°C° 0.9 mm 4 m/S 744 mmHg 85%
16:00 +28°C° 0.9 mm 4 m/S 744 mmHg 86%
17:00 +28°C° 0.7 mm 4 m/S 744 mmHg 87%
18:00 +27°C° 0.7 mm 4 m/S 745 mmHg 89%
19:00 +27°C° 0.7 mm 4 m/S 745 mmHg 91%
20:00 +27°C° 0.2 mm 4 m/S 745 mmHg 91%
21:00 +27°C° 0.2 mm 4 m/S 746 mmHg 91%
22:00 +27°C° 0.2 mm 4 m/S 746 mmHg 92%
23:00 +26°C° 0.2 mm 3 m/S 746 mmHg 92%

Morgen, 31 Oktober, Samstag

Zeit Temperatur Niederschläge Wind Luftdruck Luftfeuchtigkeit
00:00 +26°C° 0.2 mm 3 m/S 745 mmHg 92%
01:00 +26°C° 0.2 mm 2 m/S 745 mmHg 92%
02:00 +26°C° 0.1 mm 2 m/S 745 mmHg 92%
03:00 +26°C° 0.1 mm 2 m/S 745 mmHg 91%
04:00 +26°C° 0.1 mm 3 m/S 745 mmHg 91%
05:00 +26°C° 0 mm 3 m/S 745 mmHg 90%
06:00 +26°C° 0 mm 3 m/S 746 mmHg 89%
07:00 +27°C° 0 mm 3 m/S 746 mmHg 88%
08:00 +28°C° 0.2 mm 4 m/S 746 mmHg 84%
09:00 +29°C° 0.2 mm 5 m/S 747 mmHg 80%
10:00 +30°C° 0.2 mm 5 m/S 747 mmHg 75%
11:00 +30°C° 0 mm 5 m/S 746 mmHg 72%
12:00 +30°C° 0 mm 5 m/S 746 mmHg 69%
13:00 +32°C° 0 mm 5 m/S 745 mmHg 65%
14:00 +30°C° 0 mm 5 m/S 745 mmHg 69%
15:00 +29°C° 0 mm 5 m/S 745 mmHg 73%
16:00 +29°C° 0 mm 5 m/S 745 mmHg 78%
17:00 +28°C° 0.2 mm 5 m/S 745 mmHg 80%
18:00 +27°C° 0.2 mm 5 m/S 746 mmHg 82%
19:00 +27°C° 0.2 mm 5 m/S 746 mmHg 84%
20:00 +27°C° 0.1 mm 5 m/S 747 mmHg 83%
21:00 +27°C° 0.1 mm 5 m/S 747 mmHg 82%
22:00 +27°C° 0.1 mm 5 m/S 747 mmHg 81%
23:00 +26°C° 0.1 mm 5 m/S 746 mmHg 83%

übermorgen, 1 November, Sonntag

Zeit Temperatur Niederschläge Wind Luftdruck Luftfeuchtigkeit
00:00 +26°C° 0.1 mm 5 m/S 746 mmHg 85%
01:00 +26°C° 0.1 mm 4 m/S 746 mmHg 87%
02:00 +26°C° 0.1 mm 4 m/S 746 mmHg 87%
03:00 +26°C° 0.1 mm 4 m/S 745 mmHg 87%
04:00 +25°C° 0.1 mm 4 m/S 745 mmHg 88%
05:00 +26°C° 0.2 mm 4 m/S 746 mmHg 86%
06:00 +26°C° 0.2 mm 5 m/S 746 mmHg 85%
07:00 +27°C° 0.2 mm 5 m/S 747 mmHg 84%
08:00 +28°C° 0.1 mm 5 m/S 747 mmHg 78%
09:00 +29°C° 0.1 mm 5 m/S 747 mmHg 72%
10:00 +30°C° 0.1 mm 6 m/S 747 mmHg 66%
11:00 +30°C° 0 mm 5 m/S 746 mmHg 64%
12:00 +30°C° 0 mm 5 m/S 746 mmHg 62%
13:00 +30°C° 0 mm 5 m/S 745 mmHg 61%
14:00 +29°C° 0 mm 5 m/S 745 mmHg 65%
15:00 +29°C° 0 mm 5 m/S 745 mmHg 70%
16:00 +28°C° 0 mm 5 m/S 744 mmHg 75%
17:00 +27°C° 0 mm 5 m/S 745 mmHg 78%
18:00 +27°C° 0 mm 4 m/S 745 mmHg 81%
19:00 +26°C° 0 mm 4 m/S 746 mmHg 84%
20:00 +26°C° 0 mm 4 m/S 746 mmHg 85%
21:00 +26°C° 0 mm 4 m/S 746 mmHg 87%
22:00 +26°C° 0 mm 4 m/S 746 mmHg 88%
23:00 +25°C° 0 mm 4 m/S 745 mmHg 89%

2 November, Montag

Zeit Temperatur Niederschläge Wind Luftdruck Luftfeuchtigkeit
00:00 +25°C° 0 mm 4 m/S 745 mmHg 89%
01:00 +25°C° 0 mm 4 m/S 745 mmHg 90%
02:00 +25°C° 0 mm 4 m/S 745 mmHg 90%
03:00 +25°C° 0 mm 4 m/S 744 mmHg 91%
04:00 +25°C° 0 mm 3 m/S 744 mmHg 91%
05:00 +26°C° 0.2 mm 3 m/S 745 mmHg 90%
06:00 +26°C° 0.2 mm 3 m/S 745 mmHg 88%
07:00 +27°C° 0.2 mm 3 m/S 745 mmHg 87%
08:00 +27°C° 0.3 mm 3 m/S 745 mmHg 83%
09:00 +28°C° 0.3 mm 3 m/S 745 mmHg 80%
10:00 +29°C° 0.3 mm 3 m/S 745 mmHg 77%
11:00 +29°C° 0.7 mm 3 m/S 744 mmHg 79%
12:00 +29°C° 0.7 mm 3 m/S 744 mmHg 82%
13:00 +29°C° 0.7 mm 3 m/S 743 mmHg 85%
14:00 +28°C° 1.7 mm 3 m/S 743 mmHg 86%
15:00 +28°C° 1.7 mm 3 m/S 743 mmHg 87%
16:00 +28°C° 1.7 mm 3 m/S 743 mmHg 88%
17:00 +27°C° 1.1 mm 3 m/S 743 mmHg 89%
18:00 +27°C° 1.1 mm 3 m/S 744 mmHg 90%
19:00 +26°C° 1.1 mm 3 m/S 744 mmHg 90%
20:00 +26°C° 0.5 mm 3 m/S 744 mmHg 91%
21:00 +26°C° 0.5 mm 3 m/S 744 mmHg 91%
22:00 +26°C° 0.5 mm 3 m/S 744 mmHg 91%
23:00 +26°C° 0.3 mm 3 m/S 744 mmHg 91%

3 November, Dienstag

Zeit Temperatur Niederschläge Wind Luftdruck Luftfeuchtigkeit
00:00 +26°C° 0.3 mm 3 m/S 744 mmHg 90%
01:00 +25°C° 0.3 mm 3 m/S 744 mmHg 90%
02:00 +25°C° 0.6 mm 3 m/S 744 mmHg 90%
03:00 +25°C° 0.6 mm 3 m/S 743 mmHg 91%
04:00 +25°C° 0.6 mm 3 m/S 743 mmHg 91%
05:00 +26°C° 0.3 mm 3 m/S 744 mmHg 90%
06:00 +26°C° 0.3 mm 3 m/S 744 mmHg 89%
07:00 +27°C° 0.3 mm 3 m/S 745 mmHg 88%
08:00 +28°C° 0.3 mm 3 m/S 745 mmHg 85%
09:00 +29°C° 0.3 mm 4 m/S 745 mmHg 81%
10:00 +30°C° 0.3 mm 4 m/S 746 mmHg 77%
11:00 +30°C° 0.3 mm 4 m/S 745 mmHg 77%
12:00 +30°C° 0.3 mm 4 m/S 745 mmHg 76%
13:00 +30°C° 0.3 mm 4 m/S 744 mmHg 76%
14:00 +29°C° 0.5 mm 4 m/S 744 mmHg 79%
15:00 +28°C° 0.5 mm 4 m/S 744 mmHg 82%
16:00 +28°C° 0.5 mm 4 m/S 744 mmHg 85%
17:00 +27°C° 0 mm 4 m/S 744 mmHg 86%
18:00 +27°C° 0 mm 4 m/S 745 mmHg 86%
19:00 +27°C° 0 mm 4 m/S 745 mmHg 87%
20:00 +26°C° 0 mm 4 m/S 746 mmHg 87%
21:00 +26°C° 0 mm 4 m/S 746 mmHg 88%
22:00 +26°C° 0 mm 3 m/S 746 mmHg 88%
23:00 +26°C° 0.2 mm 4 m/S 746 mmHg 89%

4 November, Mittwoch

Zeit Temperatur Niederschläge Wind Luftdruck Luftfeuchtigkeit
00:00 +26°C° 0.2 mm 4 m/S 746 mmHg 90%
01:00 +25°C° 0.2 mm 4 m/S 746 mmHg 91%
02:00 +25°C° 0.1 mm 4 m/S 746 mmHg 90%
03:00 +25°C° 0.1 mm 3 m/S 746 mmHg 90%
04:00 +25°C° 0.1 mm 3 m/S 746 mmHg 90%
05:00 +26°C° 0 mm 3 m/S 746 mmHg 88%
06:00 +26°C° 0 mm 3 m/S 746 mmHg 86%
07:00 +27°C° 0 mm 4 m/S 747 mmHg 84%
08:00 +27°C° 0.2 mm 4 m/S 747 mmHg 81%
09:00 +28°C° 0.2 mm 4 m/S 747 mmHg 79%
10:00 +29°C° 0.2 mm 5 m/S 747 mmHg 76%
11:00 +29°C° 0.1 mm 5 m/S 747 mmHg 71%
12:00 +30°C° 0.1 mm 5 m/S 746 mmHg 66%
13:00 +30°C° 0.1 mm 5 m/S 746 mmHg 62%
14:00 +29°C° 0.1 mm 5 m/S 746 mmHg 67%
15:00 +29°C° 0.1 mm 4 m/S 745 mmHg 73%
16:00 +28°C° 0.1 mm 4 m/S 745 mmHg 79%
17:00 +27°C° 0.1 mm 4 m/S 746 mmHg 80%
18:00 +27°C° 0.1 mm 4 m/S 746 mmHg 82%
19:00 +26°C° 0.1 mm 4 m/S 747 mmHg 83%
20:00 +26°C° 0 mm 4 m/S 747 mmHg 80%
21:00 +27°C° 0 mm 5 m/S 747 mmHg 77%
22:00 +27°C° 0 mm 5 m/S 747 mmHg 74%
23:00 +26°C° 0.2 mm 4 m/S 747 mmHg 78%
Mehr zeigen